Regional Weather Roundup
Issued by NWS Albany, NY

Current Version | Previous Version | Text Only | Print | Product List | Glossary On
Versions: 1 2 3 4 5 6 7 8 9 10 11 12 13 14 15 16 17 18 19 20 21 22 23 24 25 26 27 28
000
ASUS41 KALY 230210
RWRALY

NEW YORK STATE HOURLY WEATHER ROUNDUP
NATIONAL WEATHER SERVICE ALBANY NY
1000 PM EDT MON MAY 22 2017

NOTE: "FAIR" INDICATES FEW OR NO CLOUDS BELOW 12,000 FEET WITH NO
SIGNIFICANT WEATHER AND/OR NO OBSTRUCTIONS TO VISIBILITY.

NYZ032-033-038>043-046>054-057>066-NYZ062>081-082-084-230300-
EAST


CITY           SKY/WX    TMP DP  RH WIND       PRES   REMARKS
ALBANY         CLOUDY    57  53  86 S8        29.98R
GLENS FALLS    NOT AVBL
POUGHKEEPSIE   CLOUDY    57  56  96 CALM      29.96S
NEWBURGH       CLOUDY    57  57 100 CALM      29.98S FOG
MONTGOMERY     CLOUDY    58  56  93 CALM      29.97S FOG
WHITE PLAINS   FOG       59  57  93 NW3       29.96S VSB 1/4
ISLIP          FOG       59  59 100 W6        29.96S VSB 1/4
NEW YORK CITY  CLOUDY    62  59  90 W7        29.96R
CENTRAL PARK   CLOUDY    60  60 100 W3        30.00R FOG
$$

NYZ005>009-017-018-044>046-055-056-230300-
CENTRAL


CITY           SKY/WX    TMP DP  RH WIND       PRES   REMARKS
FULTON         CLEAR     48  45  89 CALM      29.99R
SYRACUSE       CLOUDY    54  44  69 SW9       30.00R
ROME           CLOUDY    51  48  89 CALM      30.01R
ELMIRA         CLOUDY    58  46  64 VRB3      30.01R
BINGHAMTON     CLOUDY    56  50  80 N12       29.99S
MONTICELLO     CLOUDY    54  54 100 CALM      30.00S VSB 1/2
$$

NYZ026>034-041>043-087-230300-
NORTH


CITY           SKY/WX    TMP DP  RH WIND       PRES   REMARKS
WATERTOWN      CLOUDY    50  47  89 SW5       29.98R
FORT DRUM      NOT AVBL
OGDENSBURG     FAIR      55  48  78 SW6       29.93R
MASSENA        MOCLDY    57  48  72 SW13      29.93R
SARANAC LAKE   MOCLDY    50  48  93 SW9       29.94R
PLATTSBURGH    CLOUDY    54  52  93 S6        29.92R
$$

NYZ001>004-010>016-019>021-085-230300-
WEST


CITY           SKY/WX    TMP DP  RH WIND       PRES   REMARKS
NIAGARA FALLS  CLEAR     56  42  59 SW8       29.98R
BUFFALO        MOCLDY    52  43  71 SW7       29.99S
DUNKIRK        CLEAR     51  43  74 SW5       30.00S
JAMESTOWN      CLOUDY    52  39  62 S3        30.02S
WELLSVILLE     LGT RAIN  49  40  71 W8        30.04R
ROCHESTER      PTCLDY    52  43  71 SW7       30.00R
PENN YAN       PTCLDY    55  40  56 SW8       30.01R
$$

             KEY
       WCI = WIND CHILL INDEX
       VSB = VISIBILITY
       HX  = HEAT INDEX
$$




USA.gov is the U.S. government's official web portal to all federal, state and local government web resources and services.